Weather History for Cortez, CO

Change the Weather History Date:

Sunday, July 8, 2012

  Actual Average Record
Temperature  
Mean Temperature 73 °F 71 °F  
Max Temperature 86 °F 90 °F 97 °F (2003)
Min Temperature 60 °F 51 °F 41 °F (2005)
Degree Days  
Heating Degree Days 0 0  
Month to date heating degree days 0 0  
Since 1 June heating degree days 11 75  
Since 1 July heating degree days 0 0  
Cooling Degree Days 8 6  
Month to date cooling degree days 70 41  
Year to date cooling degree days 235 104  
Since 1 June cooling degree days 226 99  
Growing Degree Days 22 (Base 50)    
Moisture  
Dew Point 54 °F    
Average Humidity 58    
Maximum Humidity 84    
Minimum Humidity 32    
Precipitation  
Precipitation 0.26 in 0.01 in 0.37 in (2000)
Month to date precipitation 0.45 0.07  
Year to date precipitation 2.94 5.69  
Sea Level Pressure  
Sea Level Pressure 30.11 in    
Wind  
Wind Speed 3 mph (ENE)    
Max Wind Speed 24 mph    
Max Gust Speed 31 mph    
Visibility 9 miles    
Events Rain , Thunderstorm    
T = Trace of Precipitation, MM = Missing Value Source: NWS Daily Summary

Daily Weather History Graph

Daily Weather History Graph

Search for Another Location

Airport:

Trip Planner

Search our weather history database for the weather conditions in past years. The results will help you decide how hot, cold, wet, or windy it might be!

Date:

Astronomy

Jul. 08, 2012 Rise Set
Actual Time 6:01 AM MDT 8:37 PM MDT
Civil Twilight 5:31 AM MDT 9:07 PM MDT
Nautical Twilight 4:53 AM MDT 9:45 PM MDT
Astronomical Twilight 4:10 AM MDT 10:28 PM MDT
Moon 11:35 PM MDT (7/8) 11:23 AM MDT (7/8)
Length of Visible Light 15h 36m
Length of Day
14h 35m
Waning Gibbous, 72% of the Moon is Illuminated
Jul 8
Waning Gibbous
Jul 10
Last Quarter
Jul 18
New
Jul 26
First Quarter
Aug 1
Full

Hourly Weather History & Observations

Time (MDT) Temp. Heat Index Dew Point Humidity Pressure Visibility Wind Dir Wind Speed Gust Speed Precip Events Conditions
12:53 AM 64.0 °F - 54.0 °F 70% 30.11 in 10.0 mi NNE 12.7 mph - N/A   Overcast
1:53 AM 62.1 °F - 54.0 °F 75% 30.10 in 10.0 mi Calm Calm - N/A   Scattered Clouds
2:53 AM 61.0 °F - 55.0 °F 81% 30.09 in 10.0 mi Calm Calm - N/A   Mostly Cloudy
3:53 AM 60.1 °F - 54.0 °F 80% 30.07 in 10.0 mi Calm Calm - N/A   Clear
4:53 AM 61.0 °F - 55.0 °F 81% 30.08 in 10.0 mi NNW 3.5 mph - N/A   Overcast
5:53 AM 61.0 °F - 55.0 °F 81% 30.10 in 10.0 mi Calm Calm - N/A   Overcast
6:53 AM 62.1 °F - 55.9 °F 80% 30.13 in 10.0 mi North 4.6 mph - N/A   Overcast
7:53 AM 63.0 °F - 55.9 °F 78% 30.14 in 10.0 mi ENE 5.8 mph - N/A   Mostly Cloudy
8:53 AM 64.9 °F - 55.0 °F 70% 30.14 in 10.0 mi Calm Calm - N/A   Mostly Cloudy
9:53 AM 66.9 °F - 55.9 °F 68% 30.14 in 10.0 mi Calm Calm - 0.01 in Rain Light Rain
10:53 AM 73.0 °F - 54.0 °F 51% 30.12 in 10.0 mi NNE 3.5 mph - 0.00 in   Clear
11:53 AM 77.0 °F - 52.0 °F 42% 30.09 in 10.0 mi NNE 3.5 mph - N/A   Clear
12:53 PM 78.1 °F - 51.1 °F 39% 30.08 in 10.0 mi Calm Calm - N/A   Mostly Cloudy
1:53 PM 78.1 °F - 55.0 °F 45% 30.06 in 10.0 mi Calm Calm - 0.04 in   Mostly Cloudy
2:53 PM 80.1 °F - 52.0 °F 38% 30.03 in 10.0 mi ESE 3.5 mph - N/A   Clear
3:53 PM 84.9 °F - 51.1 °F 31% 29.99 in 10.0 mi Calm Calm - N/A   Mostly Cloudy
4:07 PM 82.4 °F 81.4 °F 53.6 °F 37% 30.23 in 10.0 mi SSE 16.1 mph - N/A Thunderstorm Thunderstorm
4:22 PM 80.6 °F 80.3 °F 53.6 °F 39% 30.23 in 10.0 mi SSE 10.4 mph - N/A   Partly Cloudy
4:53 PM 80.1 °F 80.1 °F 55.0 °F 42% 29.99 in 10.0 mi SSE 9.2 mph - N/A   Clear
5:51 PM 75.2 °F - 50.0 °F 41% 30.23 in 10.0 mi NE 17.3 mph 28.8 mph N/A   Overcast
5:53 PM 75.9 °F - 50.0 °F 40% 30.01 in 10.0 mi NE 19.6 mph 28.8 mph N/A   Overcast
6:16 PM 75.2 °F - 50.0 °F 41% 30.24 in 10.0 mi East 13.8 mph 19.6 mph N/A Thunderstorm Overcast
6:36 PM 73.4 °F - 51.8 °F 47% 30.26 in 10.0 mi ENE 12.7 mph - N/A   Overcast
6:51 PM 68.0 °F - 53.6 °F 60% 30.25 in 2.0 mi Variable 5.8 mph 17.3 mph 0.16 in Rain Heavy Rain
6:53 PM 66.9 °F - 55.0 °F 66% 30.05 in 2.0 mi Variable 5.8 mph 17.3 mph 0.17 in Rain Heavy Rain
6:58 PM 66.2 °F - 57.2 °F 73% 30.24 in 3.0 mi ENE 13.8 mph - 0.03 in Rain Heavy Rain
7:53 PM 69.1 °F - 59.0 °F 70% 30.04 in 10.0 mi North 6.9 mph - 0.04 in   Mostly Cloudy
8:53 PM 68.0 °F - 57.9 °F 70% 30.03 in 10.0 mi Calm Calm - N/A   Partly Cloudy
9:53 PM 69.1 °F - 55.9 °F 63% 30.06 in 10.0 mi SSW 8.1 mph - N/A   Clear
10:53 PM 66.0 °F - 55.0 °F 68% 30.06 in 10.0 mi SW 3.5 mph - N/A   Clear
11:53 PM 64.9 °F - 55.0 °F 70% 30.06 in 10.0 mi Calm Calm - N/A   Clear